sat.trackr.live / text

‹ back to catalog

UNKNOWN

NORAD 85246

UNKNOWN UNKNOWN UNKNOWN

§ Identity

Operator
Country
Launch date
Launch site
Launch vehicle
Mass (kg)
RCS (m²)

External: N2YO · Heavens-Above

§ Orbital elements

Epoch: 2026-05-23T16:43:14.311488Z

Period
101.27 min
Inclination
97.9921°
Eccentricity
0.0221628
Mean motion
14.22006090 rev/d
Perigee alt
659.1 km
Apogee alt
978.1 km
Semi-major
7,196.7 km
B*
2.3544e-4
RAAN
137.1249°
Arg perigee
185.7064°
Mean anomaly
174.1586°
Rev number
64,608

§ Raw data

UNKNOWN1 85246U          26143.69669342  .00000627  00000+0  23544-3 0  99912 85246  97.9921 137.1249 0221628 185.7064 174.1586 14.22006090646083

JSON: /api/v1/satellites/85246 · /tle

For live sub-satellite position, see the globe view (requires WebGL).

§ Visibility from observer

Set your observer location to see the next 7 days of passes ≥ 10°. The values pass through the URL so the page stays shareable.

No JS? Fill the form by hand. The geolocation button needs JavaScript.